ARG1287 SCEL-SAEZ

Flight info

Callsign ARG1287
Flight time N/A
Altitude 35000
Route ALBAL7C ALBAL UM424 ASADA ASADA7X
Aircraft B738/M-SDE2E3FGHIRWXY/LB1

Departure

Time N/A
Airport Comodoro Arturo Merino Benítez International Airport (SCEL)

Arrival

Time 2026-04-30 19:15
Airport Ezeiza International Airport - Ministro Pistarini (SAEZ)
Time Latitude Longitude Altitude Speed Heading
2026-04-30 17:51 -34.06071 -70.14393 21160 ft 362 kts 115°
2026-04-30 17:52 -34.07157 -70.11505 21282 ft 366 kts 115°
2026-04-30 17:53 -34.09914 -70.04175 21990 ft 369 kts 115°
2026-04-30 17:54 -34.14178 -69.92797 23048 ft 373 kts 116°
2026-04-30 17:55 -34.18436 -69.81193 23873 ft 381 kts 107°
2026-04-30 17:56 -34.20214 -69.68537 24504 ft 386 kts 97°
2026-04-30 17:57 -34.21477 -69.58936 25100 ft 386 kts 98°
2026-04-30 17:58 -34.22789 -69.49309 25540 ft 388 kts 98°
2026-04-30 17:59 -34.24538 -69.36445 26112 ft 389 kts 98°
2026-04-30 18:00 -34.26288 -69.23451 26635 ft 392 kts 98°
2026-04-30 18:00 -34.27597 -69.13663 26974 ft 395 kts 97°
2026-04-30 18:01 -34.28470 -69.07108 27218 ft 396 kts 97°
2026-04-30 18:02 -34.29779 -68.97175 27542 ft 399 kts 97°
2026-04-30 18:02 -34.31073 -68.87245 27859 ft 401 kts 97°
2026-04-30 18:03 -34.32372 -68.77221 28155 ft 403 kts 97°
2026-04-30 18:04 -34.33666 -68.67166 28434 ft 404 kts 97°
2026-04-30 18:05 -34.35244 -68.54825 28758 ft 406 kts 96°
2026-04-30 18:06 -34.36958 -68.41294 29096 ft 407 kts 96°
2026-04-30 18:07 -34.38662 -68.27726 29338 ft 411 kts 96°
2026-04-30 18:08 -34.39971 -68.17189 29415 ft 436 kts 96°
2026-04-30 18:09 -34.41835 -68.02086 29699 ft 471 kts 96°
2026-04-30 18:10 -34.43812 -67.85921 29928 ft 501 kts 96°
2026-04-30 18:11 -34.45817 -67.69038 30891 ft 505 kts 96°
2026-04-30 18:11 -34.47269 -67.56430 31790 ft 504 kts 96°
2026-04-30 18:12 -34.48715 -67.43811 32642 ft 503 kts 95°
2026-04-30 18:13 -34.49670 -67.35418 33193 ft 503 kts 95°
2026-04-30 18:13 -34.51094 -67.22817 33969 ft 502 kts 95°
2026-04-30 18:14 -34.52033 -67.14434 34364 ft 503 kts 95°
2026-04-30 18:15 -34.53432 -67.01831 34779 ft 505 kts 95°
2026-04-30 18:15 -34.54824 -66.89172 34779 ft 503 kts 95°
2026-04-30 18:16 -34.56643 -66.72455 34789 ft 500 kts 95°
2026-04-30 18:17 -34.57542 -66.64108 34781 ft 500 kts 95°
2026-04-30 18:18 -34.58889 -66.51499 34798 ft 501 kts 95°
2026-04-30 18:18 -34.59775 -66.43130 34788 ft 502 kts 95°
2026-04-30 18:19 -34.60658 -66.34740 34796 ft 503 kts 95°
2026-04-30 18:19 -34.61540 -66.26305 34798 ft 505 kts 95°
2026-04-30 18:20 -34.62421 -66.17823 34790 ft 506 kts 95°
2026-04-30 18:20 -34.63295 -66.09345 34798 ft 507 kts 95°
2026-04-30 18:21 -34.64168 -66.00816 34797 ft 508 kts 95°
2026-04-30 18:21 -34.65033 -65.92317 34790 ft 509 kts 95°
2026-04-30 18:22 -34.65898 -65.83746 34797 ft 509 kts 95°
2026-04-30 18:22 -34.67175 -65.70987 34799 ft 509 kts 95°
2026-04-30 18:23 -34.68026 -65.62400 34796 ft 509 kts 95°
2026-04-30 18:23 -34.68865 -65.53884 34807 ft 509 kts 95°
2026-04-30 18:24 -34.70115 -65.41079 34793 ft 508 kts 95°
2026-04-30 18:25 -34.70938 -65.32556 34806 ft 508 kts 95°
2026-04-30 18:25 -34.72160 -65.19763 34807 ft 508 kts 95°
2026-04-30 18:26 -34.73369 -65.06983 34806 ft 508 kts 95°
2026-04-30 18:27 -34.74562 -64.94221 34802 ft 508 kts 94°
2026-04-30 18:28 -34.75747 -64.81400 34815 ft 508 kts 94°
2026-04-30 18:28 -34.76919 -64.68574 34807 ft 509 kts 94°
2026-04-30 18:29 -34.78475 -64.51489 34813 ft 510 kts 94°
2026-04-30 18:30 -34.80026 -64.34329 34825 ft 510 kts 94°
2026-04-30 18:31 -34.81168 -64.21475 34828 ft 510 kts 94°
2026-04-30 18:32 -34.82306 -64.08526 34827 ft 511 kts 94°
2026-04-30 18:33 -34.83425 -63.95641 34839 ft 511 kts 94°
2026-04-30 18:33 -34.84526 -63.82742 34840 ft 511 kts 94°
2026-04-30 18:34 -34.85614 -63.69852 34844 ft 512 kts 94°
2026-04-30 18:35 -34.86337 -63.61194 34848 ft 512 kts 94°
2026-04-30 18:35 -34.87050 -63.52597 34855 ft 512 kts 94°
2026-04-30 18:36 -34.88118 -63.39670 34855 ft 512 kts 94°
2026-04-30 18:37 -34.89176 -63.26731 34861 ft 512 kts 94°
2026-04-30 18:37 -34.89874 -63.18100 34860 ft 512 kts 94°
2026-04-30 18:38 -34.90562 -63.09497 34864 ft 512 kts 94°
2026-04-30 18:38 -34.91246 -63.00885 34868 ft 512 kts 94°
2026-04-30 18:39 -34.91929 -62.92202 34872 ft 512 kts 94°
2026-04-30 18:39 -34.92601 -62.83571 34873 ft 512 kts 94°
2026-04-30 18:40 -34.93266 -62.74952 34878 ft 512 kts 94°
2026-04-30 18:40 -34.93926 -62.66337 34881 ft 512 kts 94°
2026-04-30 18:41 -34.94578 -62.57650 34883 ft 512 kts 94°
2026-04-30 18:41 -34.95215 -62.49033 34881 ft 513 kts 94°
2026-04-30 18:42 -34.95849 -62.40398 34885 ft 513 kts 94°
2026-04-30 18:42 -34.96767 -62.27386 34892 ft 513 kts 92°
2026-04-30 18:45 -34.98209 -61.79594 34900 ft 513 kts 90°
2026-04-30 18:46 -34.98466 -61.70926 34904 ft 513 kts 90°
2026-04-30 18:46 -34.98717 -61.62257 34906 ft 513 kts 90°
2026-04-30 18:47 -34.98961 -61.53523 34903 ft 513 kts 90°
2026-04-30 18:47 -34.99189 -61.44864 34915 ft 513 kts 90°
2026-04-30 18:48 -34.99412 -61.36131 34912 ft 513 kts 90°
2026-04-30 18:48 -34.99628 -61.27443 34913 ft 513 kts 90°
2026-04-30 18:49 -34.99839 -61.18748 34498 ft 520 kts 90°
2026-04-30 18:49 -34.99909 -61.15801 34119 ft 520 kts 90°
2026-04-30 18:49 -35.00056 -61.09955 33442 ft 516 kts 90°
2026-04-30 18:49 -35.00157 -61.07036 33135 ft 513 kts 91°
2026-04-30 18:50 -35.00394 -61.01294 32529 ft 507 kts 91°
2026-04-30 18:50 -35.00520 -60.98434 32237 ft 504 kts 91°
2026-04-30 18:50 -35.00708 -60.94163 31802 ft 500 kts 91°
2026-04-30 18:50 -35.00889 -60.89940 31376 ft 497 kts 91°
2026-04-30 18:51 -35.01063 -60.85731 30953 ft 493 kts 91°
2026-04-30 18:51 -35.01228 -60.81612 30531 ft 490 kts 91°
2026-04-30 18:51 -35.01390 -60.77452 30111 ft 488 kts 91°
2026-04-30 18:51 -35.01546 -60.73352 29638 ft 485 kts 91°
2026-04-30 18:52 -35.01702 -60.69216 29157 ft 481 kts 91°
2026-04-30 18:52 -35.01854 -60.65163 28700 ft 478 kts 91°
2026-04-30 18:52 -35.02003 -60.61144 28258 ft 474 kts 90°
2026-04-30 18:52 -35.02152 -60.57122 27819 ft 471 kts 90°
2026-04-30 18:53 -35.02294 -60.53220 27407 ft 467 kts 90°
2026-04-30 18:53 -35.02439 -60.49226 26970 ft 464 kts 90°
2026-04-30 18:53 -35.02581 -60.45288 26546 ft 461 kts 90°
2026-04-30 18:53 -35.02719 -60.41417 26126 ft 458 kts 90°
2026-04-30 18:54 -35.02857 -60.37515 25708 ft 456 kts 90°
2026-04-30 18:54 -35.02990 -60.33688 25290 ft 453 kts 90°
2026-04-30 18:54 -35.03124 -60.29841 24849 ft 452 kts 90°
2026-04-30 18:54 -35.03255 -60.26030 24431 ft 450 kts 90°
2026-04-30 18:55 -35.03383 -60.22244 24002 ft 449 kts 90°
2026-04-30 18:55 -35.03639 -60.14628 23092 ft 446 kts 90°
2026-04-30 18:55 -35.03764 -60.10850 22659 ft 443 kts 90°
2026-04-30 18:56 -35.04008 -60.03407 21791 ft 437 kts 90°
2026-04-30 18:56 -35.04127 -59.99707 21391 ft 433 kts 91°
2026-04-30 18:56 -35.04243 -59.96078 20987 ft 430 kts 91°
2026-04-30 18:57 -35.04470 -59.88838 20175 ft 425 kts 91°
2026-04-30 18:57 -35.04582 -59.85225 19756 ft 422 kts 91°
2026-04-30 18:57 -35.04692 -59.81645 19359 ft 420 kts 91°
2026-04-30 18:58 -35.04906 -59.74580 18534 ft 416 kts 91°
2026-04-30 18:58 -35.05011 -59.71051 18116 ft 414 kts 91°
2026-04-30 18:58 -35.05115 -59.67538 17678 ft 411 kts 91°
2026-04-30 18:59 -35.05316 -59.60661 16860 ft 405 kts 91°
2026-04-30 19:00 -35.05606 -59.50466 15688 ft 395 kts 91°
2026-04-30 19:00 -35.05698 -59.47153 15310 ft 392 kts 90°
2026-04-30 19:00 -35.05879 -59.40554 14548 ft 386 kts 90°
2026-04-30 19:01 -35.06055 -59.34037 13807 ft 380 kts 90°
2026-04-30 19:01 -35.06140 -59.30829 13401 ft 378 kts 90°
2026-04-30 19:02 -35.06306 -59.24469 12614 ft 371 kts 90°
2026-04-30 19:02 -35.06467 -59.18214 11886 ft 365 kts 90°
2026-04-30 19:03 -35.06621 -59.12075 11167 ft 359 kts 90°
2026-04-30 19:03 -35.06769 -59.06051 10474 ft 353 kts 89°
2026-04-30 19:04 -35.06912 -59.00206 10162 ft 335 kts 89°
2026-04-30 19:04 -35.07043 -58.94704 9941 ft 316 kts 89°
2026-04-30 19:05 -35.07165 -58.89386 9325 ft 313 kts 89°
2026-04-30 19:05 -35.07282 -58.84171 8689 ft 311 kts 89°
2026-04-30 19:06 -35.07400 -58.78902 8116 ft 307 kts 89°
2026-04-30 19:06 -35.07456 -58.76338 7847 ft 304 kts 89°
2026-04-30 19:06 -35.07568 -58.71206 7319 ft 300 kts 89°
2026-04-30 19:07 -35.07675 -58.66171 6775 ft 293 kts 89°
2026-04-30 19:07 -35.07727 -58.63708 6499 ft 285 kts 89°
2026-04-30 19:08 -35.07823 -58.59027 5957 ft 269 kts 89°
2026-04-30 19:08 -35.07916 -58.54561 5426 ft 260 kts 89°
2026-04-30 19:08 -35.07960 -58.52369 5281 ft 254 kts 89°
2026-04-30 19:09 -35.07826 -58.48154 5015 ft 244 kts 65°
2026-04-30 19:09 -35.06851 -58.46559 4947 ft 235 kts 32°
2026-04-30 19:09 -35.05378 -58.45863 4838 ft 222 kts
2026-04-30 19:10 -35.02402 -58.46320 4411 ft 215 kts 348°
2026-04-30 19:10 -34.99448 -58.46986 3598 ft 220 kts 347°
2026-04-30 19:11 -34.97939 -58.47433 3098 ft 224 kts 344°
2026-04-30 19:11 -34.95087 -58.48419 2448 ft 196 kts 343°
2026-04-30 19:11 -34.93837 -58.48856 2212 ft 183 kts 343°
2026-04-30 19:12 -34.92652 -58.49273 1984 ft 170 kts 343°
2026-04-30 19:12 -34.91551 -58.49639 1792 ft 154 kts 343°
2026-04-30 19:12 -34.90566 -58.49998 1554 ft 142 kts 344°
2026-04-30 19:13 -34.88679 -58.50657 1195 ft 140 kts 344°
2026-04-30 19:13 -34.86776 -58.51323 829 ft 145 kts 346°
2026-04-30 19:13 -34.85800 -58.51662 619 ft 145 kts 346°
2026-04-30 19:14 -34.84836 -58.52005 391 ft 144 kts 344°
2026-04-30 19:14 -34.83892 -58.52334 231 ft 143 kts 345°
2026-04-30 19:14 -34.82930 -58.52669 90 ft 139 kts 348°
2026-04-30 19:14 -34.82083 -58.52960 67 ft 99 kts 347°
2026-04-30 19:15 -34.81695 -58.53095 70 ft 35 kts 343°
2026-04-30 19:15 -34.81496 -58.53285 69 ft 12 kts 297°
2026-04-30 19:15 -34.81456 -58.53375 70 ft 12 kts 298°
2026-04-30 19:16 -34.81414 -58.53459 65 ft 12 kts 300°
2026-04-30 19:16 -34.81381 -58.53546 72 ft 11 kts 282°
2026-04-30 19:16 -34.81497 -58.53643 72 ft 9 kts 214°
2026-04-30 19:17 -34.81550 -58.53682 72 ft 9 kts 213°
2026-04-30 19:17 -34.81556 -58.53736 63 ft 4 kts 331°
2026-04-30 19:17 -34.81489 -58.53788 65 ft 0 kts 327°